Year,Month,Day,Hour,Minute,Value (Times are PST for temperature in C)
2008,04,17,00,00,6.40
2008,04,17,00,01,6.40
2008,04,17,00,02,6.40
2008,04,17,00,03,6.40
2008,04,17,00,04,6.40
2008,04,17,00,05,6.40
2008,04,17,00,06,6.40
2008,04,17,00,07,6.40
2008,04,17,00,08,6.40
2008,04,17,00,09,6.40
2008,04,17,00,10,6.40
2008,04,17,00,11,6.40
2008,04,17,00,12,6.40
2008,04,17,00,13,6.40
2008,04,17,00,14,6.40
2008,04,17,00,15,6.40
2008,04,17,00,16,6.40
2008,04,17,00,17,6.40
2008,04,17,00,18,6.40
2008,04,17,00,19,6.40
2008,04,17,00,20,6.40
2008,04,17,00,21,6.40
2008,04,17,00,22,6.40
2008,04,17,00,23,6.40
2008,04,17,00,24,6.40
2008,04,17,00,25,6.40
2008,04,17,00,26,6.40
2008,04,17,00,27,6.40
2008,04,17,00,28,6.40
2008,04,17,00,29,6.40
2008,04,17,00,30,6.40
2008,04,17,00,31,6.40
2008,04,17,00,32,6.40
2008,04,17,00,33,6.40
2008,04,17,00,34,6.40
2008,04,17,00,35,6.40
2008,04,17,00,36,6.40
2008,04,17,00,37,6.40
2008,04,17,00,38,6.40
2008,04,17,00,39,6.40
2008,04,17,00,40,6.50
2008,04,17,00,41,6.60
2008,04,17,00,42,6.60
2008,04,17,00,43,6.60
2008,04,17,00,44,6.60
2008,04,17,00,45,6.60
2008,04,17,00,46,6.60
2008,04,17,00,47,6.60
2008,04,17,00,48,6.60
2008,04,17,00,49,6.60
2008,04,17,00,50,6.60
2008,04,17,00,51,6.60
2008,04,17,00,52,6.60
2008,04,17,00,53,6.60
2008,04,17,00,54,6.50
2008,04,17,00,55,6.40
2008,04,17,00,56,6.40
2008,04,17,00,57,6.40
2008,04,17,00,58,6.40
2008,04,17,00,59,6.40
2008,04,17,01,00,6.40
2008,04,17,01,01,6.30
2008,04,17,01,02,6.30
2008,04,17,01,03,6.30
2008,04,17,01,04,6.20
2008,04,17,01,05,6.20
2008,04,17,01,06,6.20
2008,04,17,01,07,6.20
2008,04,17,01,08,6.20
2008,04,17,01,09,6.20
2008,04,17,01,10,6.10
2008,04,17,01,11,6.10
2008,04,17,01,12,6.10
2008,04,17,01,13,6.10
2008,04,17,01,14,6.00
2008,04,17,01,15,6.00
2008,04,17,01,16,6.00
2008,04,17,01,17,6.00
2008,04,17,01,18,6.00
2008,04,17,01,19,6.00
2008,04,17,01,20,6.00
2008,04,17,01,21,6.00
2008,04,17,01,22,6.00
2008,04,17,01,23,6.00
2008,04,17,01,24,6.00
2008,04,17,01,25,6.10
2008,04,17,01,26,6.10
2008,04,17,01,27,6.10
2008,04,17,01,28,6.20
2008,04,17,01,29,6.20
2008,04,17,01,30,6.20
2008,04,17,01,31,6.20
2008,04,17,01,32,6.20
2008,04,17,01,33,6.30
2008,04,17,01,34,6.30
2008,04,17,01,35,6.40
2008,04,17,01,36,6.40
2008,04,17,01,37,6.50
2008,04,17,01,38,6.60
2008,04,17,01,39,6.60
2008,04,17,01,40,6.60
2008,04,17,01,41,6.70
2008,04,17,01,42,6.70
2008,04,17,01,43,6.70
2008,04,17,01,44,6.80
2008,04,17,01,45,6.80
2008,04,17,01,46,6.80
2008,04,17,01,47,6.80
2008,04,17,01,48,6.80
2008,04,17,01,49,6.90
2008,04,17,01,50,6.90
2008,04,17,01,51,6.90
2008,04,17,01,52,6.90
2008,04,17,01,53,7.00
2008,04,17,01,54,7.00
2008,04,17,01,55,7.00
2008,04,17,01,56,7.00
2008,04,17,01,57,7.00
2008,04,17,01,58,7.10
2008,04,17,01,59,7.10
2008,04,17,02,00,7.10
2008,04,17,02,01,7.10
2008,04,17,02,02,7.20
2008,04,17,02,03,7.20
2008,04,17,02,04,7.10
2008,04,17,02,05,7.10
2008,04,17,02,06,7.10
2008,04,17,02,07,7.00
2008,04,17,02,08,7.00
2008,04,17,02,09,6.90
2008,04,17,02,10,7.00
2008,04,17,02,11,7.00
2008,04,17,02,12,7.00
2008,04,17,02,13,7.00
2008,04,17,02,14,7.00
2008,04,17,02,15,7.00
2008,04,17,02,16,7.00
2008,04,17,02,17,7.00
2008,04,17,02,18,7.00
2008,04,17,02,19,7.00
2008,04,17,02,20,7.00
2008,04,17,02,21,7.00
2008,04,17,02,22,7.00
2008,04,17,02,23,7.00
2008,04,17,02,24,7.00
2008,04,17,02,25,7.00
2008,04,17,02,26,7.00
2008,04,17,02,27,7.00
2008,04,17,02,28,6.90
2008,04,17,02,29,6.90
2008,04,17,02,30,6.80
2008,04,17,02,31,6.80
2008,04,17,02,32,6.70
2008,04,17,02,33,6.60
2008,04,17,02,34,6.60
2008,04,17,02,35,6.60
2008,04,17,02,36,6.50
2008,04,17,02,37,6.40
2008,04,17,02,38,6.40
2008,04,17,02,39,6.40
2008,04,17,02,40,6.30
2008,04,17,02,41,6.30
2008,04,17,02,42,6.30
2008,04,17,02,43,6.20
2008,04,17,02,44,6.20
2008,04,17,02,45,6.20
2008,04,17,02,46,6.20
2008,04,17,02,47,6.20
2008,04,17,02,48,6.20
2008,04,17,02,49,6.20
2008,04,17,02,50,6.20
2008,04,17,02,51,6.20
2008,04,17,02,52,6.30
2008,04,17,02,53,6.40
2008,04,17,02,54,6.40
2008,04,17,02,55,6.60
2008,04,17,02,56,6.60
2008,04,17,02,57,6.60
2008,04,17,02,58,6.70
2008,04,17,02,59,6.80
2008,04,17,03,00,6.80
2008,04,17,03,01,6.80
2008,04,17,03,02,6.90
2008,04,17,03,03,6.90
2008,04,17,03,04,7.00
2008,04,17,03,05,7.00
2008,04,17,03,06,7.00
2008,04,17,03,07,7.10
2008,04,17,03,08,7.10
2008,04,17,03,09,7.10
2008,04,17,03,10,7.10
2008,04,17,03,11,7.10
2008,04,17,03,12,7.10
2008,04,17,03,13,7.10
2008,04,17,03,14,7.10
2008,04,17,03,15,7.10
2008,04,17,03,16,7.10
2008,04,17,03,17,7.10
2008,04,17,03,18,7.00
2008,04,17,03,19,7.00
2008,04,17,03,20,7.00
2008,04,17,03,21,7.00
2008,04,17,03,22,7.00
2008,04,17,03,23,7.00
2008,04,17,03,24,6.90
2008,04,17,03,25,6.90
2008,04,17,03,26,6.90
2008,04,17,03,27,6.90
2008,04,17,03,28,6.90
2008,04,17,03,29,6.90
2008,04,17,03,30,6.80
2008,04,17,03,31,6.90
2008,04,17,03,32,6.90
2008,04,17,03,33,6.90
2008,04,17,03,34,6.90
2008,04,17,03,35,6.90
2008,04,17,03,36,6.90
2008,04,17,03,37,6.90
2008,04,17,03,38,6.90
2008,04,17,03,39,6.90
2008,04,17,03,40,6.90
2008,04,17,03,41,6.80
2008,04,17,03,42,6.80
2008,04,17,03,43,6.80
2008,04,17,03,44,6.80
2008,04,17,03,45,6.80
2008,04,17,03,46,6.80
2008,04,17,03,47,6.80
2008,04,17,03,48,6.70
2008,04,17,03,49,6.70
2008,04,17,03,50,6.70
2008,04,17,03,51,6.70
2008,04,17,03,52,6.70
2008,04,17,03,53,6.70
2008,04,17,03,54,6.70
2008,04,17,03,55,6.70
2008,04,17,03,56,6.70
2008,04,17,03,57,6.70
2008,04,17,03,58,6.70
2008,04,17,03,59,6.70
2008,04,17,04,00,6.70
2008,04,17,04,01,6.70
2008,04,17,04,02,6.70
2008,04,17,04,03,6.70
2008,04,17,04,04,6.70
2008,04,17,04,05,6.70
2008,04,17,04,06,6.70
2008,04,17,04,07,6.70
2008,04,17,04,08,6.70
2008,04,17,04,09,6.70
2008,04,17,04,10,6.70
2008,04,17,04,11,6.70
2008,04,17,04,12,6.70
2008,04,17,04,13,6.70
2008,04,17,04,14,6.80
2008,04,17,04,15,6.80
2008,04,17,04,16,6.80
2008,04,17,04,17,6.80
2008,04,17,04,18,6.80
2008,04,17,04,19,6.80
2008,04,17,04,20,6.80
2008,04,17,04,21,6.80
2008,04,17,04,22,6.80
2008,04,17,04,23,6.80
2008,04,17,04,24,6.80
2008,04,17,04,25,6.80
2008,04,17,04,26,6.80
2008,04,17,04,27,6.80
2008,04,17,04,28,6.80
2008,04,17,04,29,6.90
2008,04,17,04,30,6.90
2008,04,17,04,31,6.80
2008,04,17,04,32,6.80
2008,04,17,04,33,6.80
2008,04,17,04,34,6.80
2008,04,17,04,35,6.70
2008,04,17,04,36,6.70
2008,04,17,04,37,6.70
2008,04,17,04,38,6.70
2008,04,17,04,39,6.70
2008,04,17,04,40,6.70
2008,04,17,04,41,6.70
2008,04,17,04,42,6.80
2008,04,17,04,43,6.70
2008,04,17,04,44,6.70
2008,04,17,04,45,6.70
2008,04,17,04,46,6.70
2008,04,17,04,47,6.70
2008,04,17,04,48,6.70
2008,04,17,04,49,6.70
2008,04,17,04,50,6.70
2008,04,17,04,51,6.70
2008,04,17,04,52,6.70
2008,04,17,04,53,6.70
2008,04,17,04,54,6.70
2008,04,17,04,55,6.70
2008,04,17,04,56,6.70
2008,04,17,04,57,6.70
2008,04,17,04,58,6.70
2008,04,17,04,59,6.70
2008,04,17,05,00,6.60
2008,04,17,05,01,6.60
2008,04,17,05,02,6.60
2008,04,17,05,03,6.60
2008,04,17,05,04,6.60
2008,04,17,05,05,6.60
2008,04,17,05,06,6.60
2008,04,17,05,07,6.60
2008,04,17,05,08,6.60
2008,04,17,05,09,6.60
2008,04,17,05,10,6.60
2008,04,17,05,11,6.70
2008,04,17,05,12,6.70
2008,04,17,05,13,6.70
2008,04,17,05,14,6.70
2008,04,17,05,15,6.70
2008,04,17,05,16,6.70
2008,04,17,05,17,6.70
2008,04,17,05,18,6.70
2008,04,17,05,19,6.60
2008,04,17,05,20,6.60
2008,04,17,05,21,6.60
2008,04,17,05,22,6.60
2008,04,17,05,23,6.60
2008,04,17,05,24,6.60
2008,04,17,05,25,6.70
2008,04,17,05,26,6.70
2008,04,17,05,27,6.70
2008,04,17,05,28,6.70
2008,04,17,05,29,6.70
2008,04,17,05,30,6.70
2008,04,17,05,31,6.70
2008,04,17,05,32,6.70
2008,04,17,05,33,6.70
2008,04,17,05,34,6.70
2008,04,17,05,35,6.70
2008,04,17,05,36,6.70
2008,04,17,05,37,6.70
2008,04,17,05,38,6.70
2008,04,17,05,39,6.70
2008,04,17,05,40,6.70
2008,04,17,05,41,6.70
2008,04,17,05,42,6.70
2008,04,17,05,43,6.70
2008,04,17,05,44,6.60
2008,04,17,05,45,6.60
2008,04,17,05,46,6.60
2008,04,17,05,47,6.60
2008,04,17,05,48,6.60
2008,04,17,05,49,6.60
2008,04,17,05,50,6.60
2008,04,17,05,51,6.60
2008,04,17,05,52,6.60
2008,04,17,05,53,6.60
2008,04,17,05,54,6.60
2008,04,17,05,55,6.60
2008,04,17,05,56,6.60
2008,04,17,05,57,6.60
2008,04,17,05,58,6.60
2008,04,17,05,59,6.60
2008,04,17,06,00,6.50
2008,04,17,06,01,6.40
2008,04,17,06,02,6.40
2008,04,17,06,03,6.40
2008,04,17,06,04,6.40
2008,04,17,06,05,6.40
2008,04,17,06,06,6.40
2008,04,17,06,07,6.40
2008,04,17,06,08,6.40
2008,04,17,06,09,6.40
2008,04,17,06,10,6.40
2008,04,17,06,11,6.40
2008,04,17,06,12,6.40
2008,04,17,06,13,6.40
2008,04,17,06,14,6.40
2008,04,17,06,15,6.30
2008,04,17,06,16,6.30
2008,04,17,06,17,6.30
2008,04,17,06,18,6.30
2008,04,17,06,19,6.30
2008,04,17,06,20,6.30
2008,04,17,06,21,6.30
2008,04,17,06,22,6.30
2008,04,17,06,23,6.30
2008,04,17,06,24,6.30
2008,04,17,06,25,6.20
2008,04,17,06,26,6.20
2008,04,17,06,27,6.20
2008,04,17,06,28,6.20
2008,04,17,06,29,6.20
2008,04,17,06,30,6.30
2008,04,17,06,31,6.30
2008,04,17,06,32,6.30
2008,04,17,06,33,6.30
2008,04,17,06,34,6.30
2008,04,17,06,35,6.30
2008,04,17,06,36,6.30
2008,04,17,06,37,6.30
2008,04,17,06,38,6.30
2008,04,17,06,39,6.30
2008,04,17,06,40,6.30
2008,04,17,06,41,6.30
2008,04,17,06,42,6.30
2008,04,17,06,43,6.30
2008,04,17,06,44,6.30
2008,04,17,06,45,6.30
2008,04,17,06,46,6.30
2008,04,17,06,47,6.30
2008,04,17,06,48,6.30
2008,04,17,06,49,6.30
2008,04,17,06,50,6.30
2008,04,17,06,51,6.30
2008,04,17,06,52,6.40
2008,04,17,06,53,6.40
2008,04,17,06,54,6.40
2008,04,17,06,55,6.40
2008,04,17,06,56,6.40
2008,04,17,06,57,6.40
2008,04,17,06,58,6.40
2008,04,17,06,59,6.50
2008,04,17,07,00,6.60
2008,04,17,07,01,6.60
2008,04,17,07,02,6.60
2008,04,17,07,03,6.60
2008,04,17,07,04,6.60
2008,04,17,07,05,6.60
2008,04,17,07,06,6.60
2008,04,17,07,07,6.70
2008,04,17,07,08,6.70
2008,04,17,07,09,6.70
2008,04,17,07,10,6.80
2008,04,17,07,11,6.80
2008,04,17,07,12,6.80
2008,04,17,07,13,6.80
2008,04,17,07,14,6.80
2008,04,17,07,15,6.90
2008,04,17,07,16,6.90
2008,04,17,07,17,6.90
2008,04,17,07,18,6.90
2008,04,17,07,19,7.00
2008,04,17,07,20,7.00
2008,04,17,07,21,7.00
2008,04,17,07,22,7.10
2008,04,17,07,23,7.10
2008,04,17,07,24,7.10
2008,04,17,07,25,7.10
2008,04,17,07,26,7.20
2008,04,17,07,27,7.20
2008,04,17,07,28,7.20
2008,04,17,07,29,7.20
2008,04,17,07,30,7.20
2008,04,17,07,31,7.30
2008,04,17,07,32,7.30
2008,04,17,07,33,7.30
2008,04,17,07,34,7.30
2008,04,17,07,35,7.30
2008,04,17,07,36,7.30
2008,04,17,07,37,7.30
2008,04,17,07,38,7.30
2008,04,17,07,39,7.30
2008,04,17,07,40,7.30
2008,04,17,07,41,7.30
2008,04,17,07,42,7.30
2008,04,17,07,43,7.30
2008,04,17,07,44,7.40
2008,04,17,07,45,7.40
2008,04,17,07,46,7.40
2008,04,17,07,47,7.40
2008,04,17,07,48,7.40
2008,04,17,07,49,7.40
2008,04,17,07,50,7.50
2008,04,17,07,51,7.50
2008,04,17,07,52,7.50
2008,04,17,07,53,7.50
2008,04,17,07,54,7.50
2008,04,17,07,55,7.60
2008,04,17,07,56,7.60
2008,04,17,07,57,7.60
2008,04,17,07,58,7.60
2008,04,17,07,59,7.60
2008,04,17,08,00,7.70
2008,04,17,08,01,7.70
2008,04,17,08,02,7.70
2008,04,17,08,03,7.70
2008,04,17,08,04,7.70
2008,04,17,08,05,7.80
2008,04,17,08,06,7.80
2008,04,17,08,07,7.80
2008,04,17,08,08,7.80
2008,04,17,08,09,7.80
2008,04,17,08,10,7.80
2008,04,17,08,11,7.80
2008,04,17,08,12,7.80
2008,04,17,08,13,7.80
2008,04,17,08,14,7.80
2008,04,17,08,15,7.80
2008,04,17,08,16,7.80
2008,04,17,08,17,7.90
2008,04,17,08,18,7.90
2008,04,17,08,19,7.90
2008,04,17,08,20,7.90
2008,04,17,08,21,7.90
2008,04,17,08,22,7.90
2008,04,17,08,23,8.00
2008,04,17,08,24,8.00
2008,04,17,08,25,8.00
2008,04,17,08,26,8.10
2008,04,17,08,27,8.10
2008,04,17,08,28,8.10
2008,04,17,08,29,8.10
2008,04,17,08,30,8.20
2008,04,17,08,31,8.20
2008,04,17,08,32,8.20
2008,04,17,08,33,8.20
2008,04,17,08,34,8.20
2008,04,17,08,35,8.20
2008,04,17,08,36,8.30
2008,04,17,08,37,8.30
2008,04,17,08,38,8.40
2008,04,17,08,39,8.40
2008,04,17,08,40,8.50
2008,04,17,08,41,8.50
2008,04,17,08,42,8.60
2008,04,17,08,43,8.60
2008,04,17,08,44,8.60
2008,04,17,08,45,8.60
2008,04,17,08,46,8.70
2008,04,17,08,47,8.70
2008,04,17,08,48,8.70
2008,04,17,08,49,8.70
2008,04,17,08,50,8.70
2008,04,17,08,51,8.80
2008,04,17,08,52,8.80
2008,04,17,08,53,8.90
2008,04,17,08,54,8.90
2008,04,17,08,55,8.90
2008,04,17,08,56,9.00
2008,04,17,08,57,9.10
2008,04,17,08,58,9.10
2008,04,17,08,59,9.20
2008,04,17,09,00,9.20
2008,04,17,09,01,9.30
2008,04,17,09,02,9.40
2008,04,17,09,03,9.40
2008,04,17,09,04,9.50
2008,04,17,09,05,9.60
2008,04,17,09,06,9.60
2008,04,17,09,07,9.60
2008,04,17,09,08,9.60
2008,04,17,09,09,9.70
2008,04,17,09,10,9.70
2008,04,17,09,11,9.70
2008,04,17,09,12,9.70
2008,04,17,09,13,9.70
2008,04,17,09,14,9.80
2008,04,17,09,15,9.80
2008,04,17,09,16,9.80
2008,04,17,09,17,9.90
2008,04,17,09,18,9.90
2008,04,17,09,19,10.00
2008,04,17,09,20,10.10
2008,04,17,09,21,10.10
2008,04,17,09,22,10.10
2008,04,17,09,23,10.10
2008,04,17,09,24,10.10
2008,04,17,09,25,10.10
2008,04,17,09,26,10.20
2008,04,17,09,27,10.30
2008,04,17,09,28,10.30
2008,04,17,09,29,10.30
2008,04,17,09,30,10.30
2008,04,17,09,31,10.40
2008,04,17,09,32,10.40
2008,04,17,09,33,10.40
2008,04,17,09,34,10.40
2008,04,17,09,35,10.50
2008,04,17,09,36,10.60
2008,04,17,09,37,10.50
2008,04,17,09,38,10.40
2008,04,17,09,39,10.40
2008,04,17,09,40,10.40
2008,04,17,09,41,10.40
2008,04,17,09,42,10.40
2008,04,17,09,43,10.40
2008,04,17,09,44,10.40
2008,04,17,09,45,10.60
2008,04,17,09,46,10.60
2008,04,17,09,47,10.60
2008,04,17,09,48,10.60
2008,04,17,09,49,10.60
2008,04,17,09,50,10.60
2008,04,17,09,51,10.60
2008,04,17,09,52,10.70
2008,04,17,09,53,10.80
2008,04,17,09,54,10.90
2008,04,17,09,55,10.90
2008,04,17,09,56,10.90
2008,04,17,09,57,10.90
2008,04,17,09,58,10.90
2008,04,17,09,59,10.90
2008,04,17,10,00,10.90
2008,04,17,10,01,10.90
2008,04,17,10,02,10.90
2008,04,17,10,03,10.90
2008,04,17,10,04,10.90
2008,04,17,10,05,10.90
2008,04,17,10,06,10.90
2008,04,17,10,07,11.00
2008,04,17,10,08,11.10
2008,04,17,10,09,11.10
2008,04,17,10,10,11.20
2008,04,17,10,11,11.20
2008,04,17,10,12,11.30
2008,04,17,10,13,11.30
2008,04,17,10,14,11.20
2008,04,17,10,15,11.10
2008,04,17,10,16,11.20
2008,04,17,10,17,11.30
2008,04,17,10,18,11.30
2008,04,17,10,19,11.40
2008,04,17,10,20,11.40
2008,04,17,10,21,11.40
2008,04,17,10,22,11.60
2008,04,17,10,23,11.60
2008,04,17,10,24,11.70
2008,04,17,10,25,11.70
2008,04,17,10,26,11.80
2008,04,17,10,27,11.80
2008,04,17,10,28,11.80
2008,04,17,10,29,11.80
2008,04,17,10,30,11.80
2008,04,17,10,31,11.90
2008,04,17,10,32,12.00
2008,04,17,10,33,12.00
2008,04,17,10,34,12.00
2008,04,17,10,35,12.00
2008,04,17,10,36,12.10
2008,04,17,10,37,12.00
2008,04,17,10,38,12.00
2008,04,17,10,39,11.90
2008,04,17,10,40,11.90
2008,04,17,10,41,11.90
2008,04,17,10,42,11.90
2008,04,17,10,43,11.80
2008,04,17,10,44,11.80
2008,04,17,10,45,11.80
2008,04,17,10,46,11.90
2008,04,17,10,47,11.90
2008,04,17,10,48,11.90
2008,04,17,10,49,11.90
2008,04,17,10,50,11.80
2008,04,17,10,51,11.80
2008,04,17,10,52,11.70
2008,04,17,10,53,11.60
2008,04,17,10,54,11.50
2008,04,17,10,55,11.40
2008,04,17,10,56,11.40
2008,04,17,10,57,11.40
2008,04,17,10,58,11.30
2008,04,17,10,59,11.30
2008,04,17,11,00,11.20
2008,04,17,11,01,11.20
2008,04,17,11,02,11.20
2008,04,17,11,03,11.10
2008,04,17,11,04,11.10
2008,04,17,11,05,10.90
2008,04,17,11,06,10.90
2008,04,17,11,07,10.80
2008,04,17,11,08,10.80
2008,04,17,11,09,10.80
2008,04,17,11,10,10.70
2008,04,17,11,11,10.70
2008,04,17,11,12,10.80
2008,04,17,11,13,10.90
2008,04,17,11,14,10.90
2008,04,17,11,15,10.90
2008,04,17,11,16,10.90
2008,04,17,11,17,10.90
2008,04,17,11,18,11.00
2008,04,17,11,19,11.10
2008,04,17,11,20,11.10
2008,04,17,11,21,11.20
2008,04,17,11,22,11.20
2008,04,17,11,23,11.30
2008,04,17,11,24,11.30
2008,04,17,11,25,11.30
2008,04,17,11,26,11.20
2008,04,17,11,27,11.20
2008,04,17,11,28,11.20
2008,04,17,11,29,11.10
2008,04,17,11,30,11.10
2008,04,17,11,31,11.10
2008,04,17,11,32,11.10
2008,04,17,11,33,11.10
2008,04,17,11,34,11.10
2008,04,17,11,35,11.00
2008,04,17,11,36,10.90
2008,04,17,11,37,10.90
2008,04,17,11,38,10.90
2008,04,17,11,39,10.80
2008,04,17,11,40,10.80
2008,04,17,11,41,10.80
2008,04,17,11,42,10.70
2008,04,17,11,43,10.60
2008,04,17,11,44,10.60
2008,04,17,11,45,10.60
2008,04,17,11,46,10.50
2008,04,17,11,47,10.40
2008,04,17,11,48,10.40
2008,04,17,11,49,10.40
2008,04,17,11,50,10.40
2008,04,17,11,51,10.40
2008,04,17,11,52,10.40
2008,04,17,11,53,10.40
2008,04,17,11,54,10.30
2008,04,17,11,55,10.30
2008,04,17,11,56,10.30
2008,04,17,11,57,10.30
2008,04,17,11,58,10.30
2008,04,17,11,59,10.40
2008,04,17,12,00,10.40
2008,04,17,12,01,10.40
2008,04,17,12,02,10.40
2008,04,17,12,03,10.40
2008,04,17,12,04,10.40
2008,04,17,12,05,10.40
2008,04,17,12,06,10.30
2008,04,17,12,07,10.30
2008,04,17,12,08,10.30
2008,04,17,12,09,10.30
2008,04,17,12,10,10.40
2008,04,17,12,11,10.60
2008,04,17,12,12,10.70
2008,04,17,12,13,10.70
2008,04,17,12,14,10.80
2008,04,17,12,15,10.90
2008,04,17,12,16,11.00
2008,04,17,12,17,11.10
2008,04,17,12,18,11.10
2008,04,17,12,19,11.10
2008,04,17,12,20,10.90
2008,04,17,12,21,10.90
2008,04,17,12,22,11.10
2008,04,17,12,23,11.10
2008,04,17,12,24,11.10
2008,04,17,12,25,11.10
2008,04,17,12,26,11.20
2008,04,17,12,27,11.20
2008,04,17,12,28,11.10
2008,04,17,12,29,11.10
2008,04,17,12,30,11.10
2008,04,17,12,31,11.10
2008,04,17,12,32,11.20
2008,04,17,12,33,11.30
2008,04,17,12,34,11.50
2008,04,17,12,35,11.60
2008,04,17,12,36,11.50
2008,04,17,12,37,11.40
2008,04,17,12,38,11.40
2008,04,17,12,39,11.30
2008,04,17,12,40,11.30
2008,04,17,12,41,11.20
2008,04,17,12,42,11.20
2008,04,17,12,43,11.10
2008,04,17,12,44,11.20
2008,04,17,12,45,11.10
2008,04,17,12,46,11.10
2008,04,17,12,47,11.10
2008,04,17,12,48,11.10
2008,04,17,12,49,11.20
2008,04,17,12,50,11.30
2008,04,17,12,51,11.40
2008,04,17,12,52,11.40
2008,04,17,12,53,11.40
2008,04,17,12,54,11.40
2008,04,17,12,55,11.40
2008,04,17,12,56,11.40
2008,04,17,12,57,11.30
2008,04,17,12,58,11.30
2008,04,17,12,59,11.40
2008,04,17,13,00,11.30
2008,04,17,13,01,11.30
2008,04,17,13,02,11.30
2008,04,17,13,03,11.20
2008,04,17,13,04,11.30
2008,04,17,13,05,11.40
2008,04,17,13,06,11.40
2008,04,17,13,07,11.40
2008,04,17,13,08,11.40
2008,04,17,13,09,11.30
2008,04,17,13,10,11.30
2008,04,17,13,11,11.20
2008,04,17,13,12,11.20
2008,04,17,13,13,11.20
2008,04,17,13,14,11.10
2008,04,17,13,15,11.10
2008,04,17,13,16,11.30
2008,04,17,13,17,11.40
2008,04,17,13,18,11.60
2008,04,17,13,19,11.70
2008,04,17,13,20,11.70
2008,04,17,13,21,11.70
2008,04,17,13,22,11.70
2008,04,17,13,23,11.70
2008,04,17,13,24,11.80
2008,04,17,13,25,11.90
2008,04,17,13,26,12.00
2008,04,17,13,27,12.20
2008,04,17,13,28,12.50
2008,04,17,13,29,12.70
2008,04,17,13,30,12.90
2008,04,17,13,31,13.20
2008,04,17,13,32,13.30
2008,04,17,13,33,13.40
2008,04,17,13,34,13.40
2008,04,17,13,35,13.40
2008,04,17,13,36,13.40
2008,04,17,13,37,13.40
2008,04,17,13,38,13.40
2008,04,17,13,39,13.50
2008,04,17,13,40,13.50
2008,04,17,13,41,13.60
2008,04,17,13,42,13.50
2008,04,17,13,43,13.50
2008,04,17,13,44,13.60
2008,04,17,13,45,13.70
2008,04,17,13,46,13.70
2008,04,17,13,47,13.70
2008,04,17,13,48,13.70
2008,04,17,13,49,13.70
2008,04,17,13,50,13.70
2008,04,17,13,51,13.70
2008,04,17,13,52,13.70
2008,04,17,13,53,13.70
2008,04,17,13,54,13.70
2008,04,17,13,55,13.70
2008,04,17,13,56,13.80
2008,04,17,13,57,13.80
2008,04,17,13,58,13.70
2008,04,17,13,59,13.70
2008,04,17,14,00,13.70
2008,04,17,14,01,13.70
2008,04,17,14,02,13.70
2008,04,17,14,03,13.70
2008,04,17,14,04,13.80
2008,04,17,14,05,13.80
2008,04,17,14,06,13.80
2008,04,17,14,07,13.70
2008,04,17,14,08,13.70
2008,04,17,14,09,13.70
2008,04,17,14,10,13.70
2008,04,17,14,11,13.60
2008,04,17,14,12,13.70
2008,04,17,14,13,13.70
2008,04,17,14,14,13.70
2008,04,17,14,15,13.70
2008,04,17,14,16,13.60
2008,04,17,14,17,13.60
2008,04,17,14,18,13.70
2008,04,17,14,19,13.70
2008,04,17,14,20,13.70
2008,04,17,14,21,13.80
2008,04,17,14,22,13.80
2008,04,17,14,23,13.80
2008,04,17,14,24,13.90
2008,04,17,14,25,13.90
2008,04,17,14,26,14.00
2008,04,17,14,27,13.90
2008,04,17,14,28,13.90
2008,04,17,14,29,13.90
2008,04,17,14,30,14.00
2008,04,17,14,31,14.00
2008,04,17,14,32,14.20
2008,04,17,14,33,14.20
2008,04,17,14,34,14.20
2008,04,17,14,35,14.20
2008,04,17,14,36,14.20
2008,04,17,14,37,14.10
2008,04,17,14,38,14.00
2008,04,17,14,39,14.10
2008,04,17,14,40,14.20
2008,04,17,14,41,14.20
2008,04,17,14,42,14.20
2008,04,17,14,43,14.20
2008,04,17,14,44,14.20
2008,04,17,14,45,14.40
2008,04,17,14,46,14.40
2008,04,17,14,47,14.50
2008,04,17,14,48,14.50
2008,04,17,14,49,14.50
2008,04,17,14,50,14.40
2008,04,17,14,51,14.20
2008,04,17,14,52,14.20
2008,04,17,14,53,14.20
2008,04,17,14,54,14.20
2008,04,17,14,55,14.40
2008,04,17,14,56,14.50
2008,04,17,14,57,14.60
2008,04,17,14,58,14.60
2008,04,17,14,59,14.70
2008,04,17,15,00,14.50
2008,04,17,15,01,14.50
2008,04,17,15,02,14.60
2008,04,17,15,03,14.60
2008,04,17,15,04,14.70
2008,04,17,15,05,14.80
2008,04,17,15,06,14.80
2008,04,17,15,07,14.80
2008,04,17,15,08,14.90
2008,04,17,15,09,14.90
2008,04,17,15,10,14.90
2008,04,17,15,11,15.00
2008,04,17,15,12,15.10
2008,04,17,15,13,15.20
2008,04,17,15,14,15.30
2008,04,17,15,15,15.40
2008,04,17,15,16,15.30
2008,04,17,15,17,15.10
2008,04,17,15,18,15.10
2008,04,17,15,19,15.10
2008,04,17,15,20,15.10
2008,04,17,15,21,15.10
2008,04,17,15,22,15.20
2008,04,17,15,23,15.10
2008,04,17,15,24,15.10
2008,04,17,15,25,15.10
2008,04,17,15,26,15.10
2008,04,17,15,27,15.00
2008,04,17,15,28,14.90
2008,04,17,15,29,14.90
2008,04,17,15,30,14.80
2008,04,17,15,31,14.70
2008,04,17,15,32,14.80
2008,04,17,15,33,14.70
2008,04,17,15,34,14.70
2008,04,17,15,35,14.80
2008,04,17,15,36,15.00
2008,04,17,15,37,15.10
2008,04,17,15,38,15.20
2008,04,17,15,39,15.10
2008,04,17,15,40,15.10
2008,04,17,15,41,15.10
2008,04,17,15,42,15.10
2008,04,17,15,43,15.10
2008,04,17,15,44,15.30
2008,04,17,15,45,15.30
2008,04,17,15,46,15.30
2008,04,17,15,47,15.30
2008,04,17,15,48,15.30
2008,04,17,15,49,15.30
2008,04,17,15,50,15.30
2008,04,17,15,51,15.20
2008,04,17,15,52,15.10
2008,04,17,15,53,14.90
2008,04,17,15,54,14.90
2008,04,17,15,55,14.90
2008,04,17,15,56,15.00
2008,04,17,15,57,15.00
2008,04,17,15,58,15.00
2008,04,17,15,59,15.00
2008,04,17,16,00,15.00
2008,04,17,16,01,14.90
2008,04,17,16,02,14.80
2008,04,17,16,03,14.80
2008,04,17,16,04,14.70
2008,04,17,16,05,14.60
2008,04,17,16,06,14.50
2008,04,17,16,07,14.50
2008,04,17,16,08,14.40
2008,04,17,16,09,14.40
2008,04,17,16,10,14.30
2008,04,17,16,11,14.30
2008,04,17,16,12,14.40
2008,04,17,16,13,14.40
2008,04,17,16,14,14.40
2008,04,17,16,15,14.50
2008,04,17,16,16,14.50
2008,04,17,16,17,14.60
2008,04,17,16,18,14.60
2008,04,17,16,19,14.70
2008,04,17,16,20,14.70
2008,04,17,16,21,14.60
2008,04,17,16,22,14.60
2008,04,17,16,23,14.50
2008,04,17,16,24,14.40
2008,04,17,16,25,14.30
2008,04,17,16,26,14.10
2008,04,17,16,27,13.90
2008,04,17,16,28,13.80
2008,04,17,16,29,13.70
2008,04,17,16,30,13.70
2008,04,17,16,31,13.60
2008,04,17,16,32,13.50
2008,04,17,16,33,13.50
2008,04,17,16,34,13.50
2008,04,17,16,35,13.50
2008,04,17,16,36,13.50
2008,04,17,16,37,13.50
2008,04,17,16,38,13.60
2008,04,17,16,39,13.70
2008,04,17,16,40,13.60
2008,04,17,16,41,13.60
2008,04,17,16,42,13.50
2008,04,17,16,43,13.50
2008,04,17,16,44,13.40
2008,04,17,16,45,13.40
2008,04,17,16,46,13.40
2008,04,17,16,47,13.40
2008,04,17,16,48,13.30
2008,04,17,16,49,13.40
2008,04,17,16,50,13.40
2008,04,17,16,51,13.40
2008,04,17,16,52,13.30
2008,04,17,16,53,13.30
2008,04,17,16,54,13.30
2008,04,17,16,55,13.30
2008,04,17,16,56,13.30
2008,04,17,16,57,13.40
2008,04,17,16,58,13.40
2008,04,17,16,59,13.50
2008,04,17,17,00,13.50
2008,04,17,17,01,13.40
2008,04,17,17,02,13.40
2008,04,17,17,03,13.40
2008,04,17,17,04,13.40
2008,04,17,17,05,13.40
2008,04,17,17,06,13.30
2008,04,17,17,07,13.30
2008,04,17,17,08,13.30
2008,04,17,17,09,13.30
2008,04,17,17,10,13.30
2008,04,17,17,11,13.30
2008,04,17,17,12,13.20
2008,04,17,17,13,13.20
2008,04,17,17,14,13.20
2008,04,17,17,15,13.20
2008,04,17,17,16,13.10
2008,04,17,17,17,13.00
2008,04,17,17,18,12.90
2008,04,17,17,19,12.80
2008,04,17,17,20,12.70
2008,04,17,17,21,12.70
2008,04,17,17,22,12.70
2008,04,17,17,23,12.70
2008,04,17,17,24,12.70
2008,04,17,17,25,12.60
2008,04,17,17,26,12.60
2008,04,17,17,27,12.60
2008,04,17,17,28,12.50
2008,04,17,17,29,12.50
2008,04,17,17,30,12.50
2008,04,17,17,31,12.50
2008,04,17,17,32,12.50
2008,04,17,17,33,12.50
2008,04,17,17,34,12.40
2008,04,17,17,35,12.40
2008,04,17,17,36,12.30
2008,04,17,17,37,12.30
2008,04,17,17,38,12.30
2008,04,17,17,39,12.20
2008,04,17,17,40,12.20
2008,04,17,17,41,12.10
2008,04,17,17,42,12.10
2008,04,17,17,43,12.00